Home > Weather > Wiehl > Past weeks

Flag for Germany Weather for the Past 2 Weeks in Wiehl, North Rhine-Westphalia, Germany

Now
36 °F

Clear.


Feels Like: 28 °F
Forecast: 41 / 49 °F
Wind: 10 mph from Southeast

Location: Koeln / Bonn

Current Time: Apr 29, 2016 at 7:01:57 AM

Latest Report: Apr 29, 2016 at 6:20 AM


Visibility: 10 mi

Pressure: 29.95 "Hg

Humidity: 87%

Dew Point: 32 °F

Location of WiehlLocation

Historic Weather in Wiehl — Graph

°F

Wiehl Temperature Yesterday

Maximum temperature yesterday: 52 °F (at 2:20 PM)
Minimum temperature yesterday: 37 °F (at 2:50 AM)
Average temperature yesterday: 43 °F

High & Low Weather Summary for the Past Weeks

 TemperatureHumidityPressure
High70 °F (Apr 21, 3:50 PM)100% (Apr 14, 5:20 AM)30.45 "Hg (Apr 14, 5:20 AM)
Low30 °F (Apr 18, 5:50 AM)23% (Apr 21, 4:50 PM)29.53 "Hg (Apr 16, 3:50 AM)
Average47 °F68%29.94 "Hg
* Reported Apr 14 5:20 AM — Apr 29 5:20 AM, Wiehl, Weather by CustomWeather, © 2016

Note: Actual official high and low records may vary slightly from our data, if they occured in-between our weather recording intervals... More about our weather records

Advertising

Wiehl Weather History for the Previous 24 Hours

Scroll right to see more
 ConditionsComfort  
Time TempWeatherWind HumidityBarometerVisibility
5:20 AM
Fri, Apr 29
36 °FClear.10 mph87%29.98 "Hg10 mi
4:20 AM37 °FClear.9 mph81%29.98 "Hg10 mi
3:50 AM37 °FClear.9 mph81%29.98 "Hg10 mi
3:20 AM37 °FClear.9 mph87%29.98 "Hg10 mi
2:50 AM37 °FClear.7 mph87%29.98 "Hg10 mi
2:20 AM37 °FClear.6 mph87%29.98 "Hg10 mi
1:50 AM39 °FClear.6 mph81%29.98 "Hg10 mi
1:20 AM39 °FClear.7 mph81%29.98 "Hg10 mi
12:20 AM37 °FClear.7 mph93%30.01 "Hg10 mi
11:50 PM
Thu, Apr 28
39 °FClear.8 mph87%30.01 "Hg10 mi
11:20 PM39 °FClear.8 mph93%30.01 "Hg10 mi
10:50 PM39 °FFog.5 mph93%30.01 "HgN/A
10:20 PM39 °FFog.3 mph93%30.01 "HgN/A
9:50 PM39 °FFog.2 mph93%30.01 "HgN/A
9:20 PM39 °FScattered showers. Fog.2 mph100%30.01 "HgN/A
8:50 PM41 °FScattered showers. Passing clouds.2 mph87%30.01 "HgN/A
8:20 PM43 °FScattered showers. Scattered clouds.5 mph81%30.01 "HgN/A
7:50 PM43 °FScattered showers. Passing clouds.6 mph87%29.98 "HgN/A
7:20 PM45 °FRain showers. Scattered clouds.7 mph71%29.98 "HgN/A
6:50 PM45 °FSprinkles. Partly sunny.12 mph66%29.98 "HgN/A
6:20 PM48 °FSprinkles. Scattered clouds.10 mph46%29.98 "HgN/A
5:50 PM48 °FSprinkles. Scattered clouds.12 mph50%29.98 "HgN/A
5:20 PM50 °FScattered showers. Scattered clouds.14 mph58%29.98 "HgN/A
4:50 PM48 °FSprinkles. Scattered clouds.9 mph62%29.98 "HgN/A
4:20 PM48 °FSprinkles. Scattered clouds.14 mph58%29.98 "HgN/A
3:50 PM52 °FSprinkles. Scattered clouds.16 mph44%29.98 "HgN/A
3:20 PM52 °FScattered showers. Scattered clouds.8 mph44%29.95 "HgN/A
2:20 PM52 °FScattered showers. Scattered clouds.8 mph44%29.98 "HgN/A
1:20 PM48 °FSprinkles. Scattered clouds.15 mph50%29.98 "HgN/A
12:50 PM50 °FScattered showers. Scattered clouds.6 mph47%29.98 "HgN/A
12:20 PM48 °FScattered showers. Partly sunny.6 mph46%29.98 "HgN/A
11:50 AM46 °FPartly sunny.7 mph57%29.98 "HgN/A
11:20 AM46 °FPartly sunny.3 mph62%29.98 "HgN/A
10:20 AM43 °FScattered clouds.5 mph76%29.98 "HgN/A
9:20 AM39 °FSprinkles. Broken clouds.2 mph87%29.98 "HgN/A
7:50 AM37 °FSprinkles. Broken clouds.5 mph87%29.95 "HgN/A
7:20 AM37 °FBroken clouds.6 mph87%29.95 "HgN/A
Weather by CustomWeather, © 2016

See weather overviewHow to use our weather pages